JCSAT-2B

Last updated on Tue Sep 22 2026 00:03:13 GMT+0000 (Coordinated Universal Time)

1 41471U 16028A 26264.51540345 -.00000169 00000+0 00000+0 0 9996 2 41471 0.0192 154.9243 0000991 13.4279 171.6012 1.00270773 38099
UTC large
Height (km)
Speed (km/s)
/
Latitude / Longitude
Inclination (degrees)
Orbital Period (minutes)
Azimuth
Elevation
Range (km)
Doppler Factor

Next 0 passes for location: London (51.5072 / 0.1276)

No passes found over London.
JCSAT-2B